Location: Bats
(43.6587°N, 0.4584°W)
Time: 20:08:58
(UTC+00:00)

Nadezhda 3 Rocket - Pass Details

Date: 12 January 2026
Orbit: 956 x 998 km, 82.9° (Epoch: 13 February)

Event Time Altitude Azimuth Distance (km) Brightness Sun altitude
Rises 18:12:22 0° 161° (SSE) 3,625 7.0 -15.1°
Reaches altitude 10° 18:15:01 10° 153° (SSE) 2,681 6.2 -15.5°
Maximum altitude 18:20:34 37° 88° (E) 1,444 4.4 -16.5°
Drops below altitude 10° 18:26:08 10° 23° (NNE) 2,698 6.0 -17.5°
Enters shadow 18:27:25 - 19° (NNE) 3,151 6.4 -17.7°
